Location: ???? ?????????
(31.1304°N, 31.7111°E)
Time: 16:43:26
(UTC+00:00)

Cosmos 2082 - Pass Details

Date: 29 October 2020
Orbit: 832 x 857 km, 71.0° (Epoch: 29 November)

Event Time Altitude Azimuth Distance (km) Brightness Sun altitude
Rises 16:33:29 0° 346° (NNW) 3,431 7.0 -19.0°
Reaches altitude 10° 16:36:01 10° 351° (N) 2,492 6.2 -19.6°
Maximum altitude 16:41:36 53° 68° (ENE) 1,043 3.8 -20.8°
Enters shadow 16:43:45 35° 124° (SE) 1,358 4.4 -21.2°
